Regional Weather Roundup
Issued by NWS

Home | Current Version | Previous Version | Text Only | Print | Product List | Glossary On
Versions: 1 2 3 4 5 6 7 8 9 10 11 12 13 14 15 16 17 18 19 20 21 22 23 24 25 26 27 28 29 30 31 32 33 34 35 36 37 38 39 40 41 42 43 44 45 46 47 48 49
000
ASUS45 KREV 281210
RWRNV
NEVADA REGIONAL WEATHER ROUNDUP
NATIONAL WEATHER SERVICE RENO NV
500 AM PDT THU MAY 28 2015

NOTE: "FAIR" INDICATES FEW OR NO CLOUDS BELOW 12,000 FEET WITH NO
SIGNIFICANT WEATHER AND/OR OBSTRUCTIONS TO VISIBILITY.

NVZ001-003-004-281300-
WESTERN NEVADA

CITY           SKY/WX    TMP DP  RH WIND       PRES   REMARKS
RENO           CLEAR     54  35  48 CALM      30.10R
6HR MIN TEMP:  53; 6HR MAX TEMP:  66;

CARSON CITY    FAIR      48  34  57 NW3       30.12R
MINDEN         FAIR      36  32  87 NE5       30.12
SLIDE MTN        N/A     41  32  70 N8          N/A
PYRAMID LAKE     N/A     63 N/A N/A S6          N/A
FALLON         NOT AVBL
LOVELOCK       CLEAR     56  42  59 CALM      30.03R
6HR MIN TEMP:  53; 6HR MAX TEMP:  67;

HAWTHORNE      CLEAR     59  43  55 CALM      30.06S
$$

NVZ002-CAZ072-073-281300-
NORTHERN AND CENTRAL SIERRA

CITY           SKY/WX    TMP DP  RH WIND       PRES   REMARKS
S. LAKE TAHOE  CLEAR     36  31  82 CALM      30.18S
6HR MIN TEMP:  36; 6HR MAX TEMP:  50;

TRUCKEE        CLEAR     30  30 100 CALM      30.19S
SQUAW VLY 8000   N/A     41  18  38 CALM        N/A
SUSANVILLE     CLEAR     46  39  76 CALM      30.09R
BLUE CANYON    CLEAR     57  23  26 NE6       30.12F
MAMMOTH LAKES  FAIR      41  21  45 CALM      30.21R
BRIDGEPORT     FAIR      33  22  63 CALM      30.19S
$$

NVZ030-031-036-281300-
NORTHERN NEVADA

CITY           SKY/WX    TMP DP  RH WIND       PRES   REMARKS
ELKO           CLEAR     47  43  86 NE3       30.10S
6HR MIN TEMP:  46; 6HR MAX TEMP:  56;

WINNEMUCCA       N/A     45  43  93 CALM      30.08
WENDOVER       MOCLDY    52  46  82 W6        30.08S
$$

NVZ035-037-281300-
CENTRAL NEVADA

CITY           SKY/WX    TMP DP  RH WIND       PRES   REMARKS
ELY            CLEAR     38  37  97 CALM      30.15F
6HR MIN TEMP:  38; 6HR MAX TEMP:  49;

EUREKA           N/A     43  38  82 S3        30.13R
6HR MIN TEMP:  43; 6HR MAX TEMP:  50;

$$

NVZ013-014-281300-
SOUTH CENTRAL NEVADA

CITY           SKY/WX    TMP DP  RH WIND       PRES   REMARKS
TONOPAH        CLEAR     53  33  46 N13       30.09S
6HR MIN TEMP:  53; 6HR MAX TEMP:  64;

$$

NVZ017-020-022-281300-
SOUTHERN NEVADA

CITY           SKY/WX    TMP DP  RH WIND       PRES   REMARKS
LAS VEGAS      CLEAR     73  34  23 VRB3      29.88R
6HR MIN TEMP:  72; 6HR MAX TEMP:  83;

N. LAS VEGAS   CLEAR     73  28  18 CALM      29.92R
6HR MIN TEMP:  71; 6HR MAX TEMP:  83;

NELLIS AFB     CLEAR     71  39  30 E9        29.90R
6HR MIN TEMP:  71; 6HR MAX TEMP:  85;

HENDERSON      CLEAR     70  35  27 SW8       29.95R
6HR MIN TEMP:  69; 6HR MAX TEMP:  79;

MERCURY        CLEAR     67  29  24 NE7       29.96R
6HR MIN TEMP:  65; 6HR MAX TEMP:  78;

$$


USA.gov is the U.S. government's official web portal to all federal, state and local government web resources and services.